User: anonymous   Login
Location: Festilli
(46.4000°N, 11.6667°E)
Time: 02:22:40
(UTC+00:00)
Language:

Gbstr 26 Del rocket - Orbit

View from above orbital plane
View from above orbital plane
View from above satellite
View from above satellite

Ground track
Ground track

The orbit data is extracted from the following two-line orbital elements,

1 25876U 99041E   21127.35370016 -.00000120  00000-0  19385-4 0  9993
2 25876  51.7649 111.5592 0530762 208.7872 148.2791 14.04568170114142
Epoch (UTC): 07 May 2021 08:29:19
Eccentricity: 0.0530762
inclination: 51.7649°
perigee height: 493 km
apogee height: 1263 km
right ascension of ascending node: 111.5592°
argument of perigee: 208.7872°
revolutions per day: 14.04568170
mean anomaly at epoch: 148.2791°
orbit number at epoch: 11414

The dashed part of the orbit path shows where the satellite is in the earth's shadow,  

DLR